• In Moldova, Republic
  • List of Countries
  • For 7 days
  • Water Temperature
  • Satellite Maps
  • Weather Map
  • Weather Widgets
  • user-avatar
    Login

    Hourly Weather Wlora

    Today, 26 June, Monday

    Time Temperature Precipitation Wind Pressure Humidity
    00:00 +26°C° 0 mm 3 mps 759 mmHg 71%
    01:00 +25°C° 0 mm 3 mps 758 mmHg 72%
    02:00 +25°C° 0 mm 3 mps 758 mmHg 73%
    03:00 +25°C° 0 mm 3 mps 758 mmHg 74%
    04:00 +25°C° 0 mm 3 mps 758 mmHg 75%
    05:00 +26°C° 0 mm 2 mps 758 mmHg 69%
    06:00 +28°C° 0 mm 2 mps 758 mmHg 63%
    07:00 +30°C° 0 mm 2 mps 758 mmHg 56%
    08:00 +31°C° 0 mm 2 mps 758 mmHg 52%
    09:00 +32°C° 0 mm 2 mps 758 mmHg 47%
    10:00 +34°C° 0 mm 2 mps 759 mmHg 42%
    11:00 +35°C° 0 mm 3 mps 758 mmHg 42%
    12:00 +35°C° 0 mm 3 mps 758 mmHg 41%
    13:00 +35°C° 0 mm 3 mps 758 mmHg 40%
    14:00 +35°C° 0 mm 3 mps 758 mmHg 42%
    15:00 +34°C° 0 mm 3 mps 758 mmHg 43%
    16:00 +34°C° 0 mm 3 mps 758 mmHg 44%
    17:00 +31°C° 0 mm 2 mps 758 mmHg 52%
    18:00 +29°C° 0 mm 2 mps 758 mmHg 60%
    19:00 +27°C° 0 mm 1 mps 758 mmHg 68%
    20:00 +26°C° 0 mm 1 mps 758 mmHg 70%
    21:00 +25°C° 0 mm 1 mps 758 mmHg 73%
    22:00 +24°C° 0 mm 1 mps 759 mmHg 75%
    23:00 +24°C° 0 mm 1 mps 759 mmHg 76%

    Tomorrow, 27 June, Tuesday

    Time Temperature Precipitation Wind Pressure Humidity
    00:00 +24°C° 0 mm 1 mps 759 mmHg 76%
    01:00 +24°C° 0 mm 1 mps 759 mmHg 76%
    02:00 +23°C° 0 mm 2 mps 759 mmHg 76%
    03:00 +23°C° 0 mm 2 mps 759 mmHg 77%
    04:00 +23°C° 0 mm 2 mps 759 mmHg 78%
    05:00 +25°C° 0 mm 2 mps 759 mmHg 71%
    06:00 +27°C° 0 mm 2 mps 759 mmHg 64%
    07:00 +29°C° 0 mm 2 mps 759 mmHg 58%
    08:00 +30°C° 0 mm 2 mps 759 mmHg 53%
    09:00 +32°C° 0 mm 2 mps 759 mmHg 48%
    10:00 +34°C° 0 mm 2 mps 759 mmHg 43%
    11:00 +35°C° 0 mm 2 mps 759 mmHg 40%
    12:00 +35°C° 0 mm 3 mps 759 mmHg 38%
    13:00 +36°C° 0 mm 3 mps 758 mmHg 36%
    14:00 +35°C° 0 mm 3 mps 758 mmHg 36%
    15:00 +35°C° 0 mm 3 mps 758 mmHg 37%
    16:00 +34°C° 0 mm 3 mps 757 mmHg 37%
    17:00 +31°C° 0 mm 3 mps 757 mmHg 46%
    18:00 +29°C° 0 mm 3 mps 758 mmHg 54%
    19:00 +27°C° 0 mm 3 mps 758 mmHg 62%
    20:00 +26°C° 0 mm 3 mps 758 mmHg 63%
    21:00 +26°C° 0 mm 3 mps 758 mmHg 63%
    22:00 +25°C° 0 mm 3 mps 758 mmHg 64%
    23:00 +25°C° 0 mm 4 mps 758 mmHg 64%

    Day after tomorrow, 28 June, Wednesday

    Time Temperature Precipitation Wind Pressure Humidity
    00:00 +25°C° 0 mm 4 mps 758 mmHg 64%
    01:00 +25°C° 0 mm 4 mps 758 mmHg 65%
    02:00 +25°C° 0 mm 5 mps 757 mmHg 65%
    03:00 +25°C° 0 mm 5 mps 757 mmHg 65%
    04:00 +25°C° 0 mm 5 mps 757 mmHg 64%
    05:00 +27°C° 0 mm 5 mps 757 mmHg 60%
    06:00 +28°C° 0 mm 5 mps 757 mmHg 55%
    07:00 +30°C° 0 mm 5 mps 758 mmHg 50%
    08:00 +32°C° 0 mm 6 mps 758 mmHg 46%
    09:00 +33°C° 0 mm 6 mps 758 mmHg 42%
    10:00 +35°C° 0 mm 6 mps 757 mmHg 37%
    11:00 +35°C° 0 mm 6 mps 757 mmHg 36%
    12:00 +36°C° 0 mm 6 mps 757 mmHg 35%
    13:00 +36°C° 0 mm 6 mps 757 mmHg 34%
    14:00 +36°C° 0 mm 6 mps 757 mmHg 36%
    15:00 +35°C° 0 mm 6 mps 757 mmHg 38%
    16:00 +34°C° 0 mm 5 mps 757 mmHg 40%
    17:00 +33°C° 0 mm 5 mps 757 mmHg 48%
    18:00 +30°C° 0 mm 5 mps 757 mmHg 56%
    19:00 +28°C° 0 mm 4 mps 757 mmHg 63%
    20:00 +28°C° 0 mm 5 mps 757 mmHg 62%
    21:00 +27°C° 0 mm 5 mps 758 mmHg 61%
    22:00 +27°C° 0 mm 5 mps 758 mmHg 59%
    23:00 +27°C° 0 mm 5 mps 757 mmHg 58%

    29 June, Thursday

    Time Temperature Precipitation Wind Pressure Humidity
    00:00 +27°C° 0 mm 6 mps 757 mmHg 58%
    01:00 +27°C° 0 mm 6 mps 757 mmHg 57%
    02:00 +27°C° 0 mm 6 mps 757 mmHg 56%
    03:00 +26°C° 0 mm 6 mps 757 mmHg 56%
    04:00 +26°C° 0 mm 6 mps 757 mmHg 56%
    05:00 +28°C° 0 mm 7 mps 757 mmHg 51%
    06:00 +30°C° 0 mm 7 mps 757 mmHg 45%
    07:00 +33°C° 0 mm 8 mps 757 mmHg 40%
    08:00 +34°C° 0 mm 8 mps 757 mmHg 36%
    09:00 +37°C° 0 mm 8 mps 757 mmHg 33%
    10:00 +39°C° 0 mm 9 mps 757 mmHg 29%
    11:00 +39°C° 0 mm 9 mps 757 mmHg 28%
    12:00 +39°C° 0 mm 9 mps 757 mmHg 27%
    13:00 +39°C° 0 mm 9 mps 757 mmHg 27%
    14:00 +39°C° 0 mm 8 mps 757 mmHg 29%
    15:00 +38°C° 0 mm 8 mps 757 mmHg 31%
    16:00 +36°C° 0 mm 7 mps 757 mmHg 33%
    17:00 +34°C° 0 mm 7 mps 757 mmHg 40%
    18:00 +32°C° 0 mm 7 mps 757 mmHg 48%
    19:00 +29°C° 0 mm 6 mps 758 mmHg 55%
    20:00 +29°C° 0 mm 6 mps 758 mmHg 56%
    21:00 +28°C° 0 mm 6 mps 759 mmHg 57%
    22:00 +28°C° 0 mm 6 mps 759 mmHg 58%
    23:00 +27°C° 0 mm 5 mps 759 mmHg 58%

    30 June, Friday

    Time Temperature Precipitation Wind Pressure Humidity
    00:00 +27°C° 0 mm 5 mps 759 mmHg 58%
    01:00 +27°C° 0 mm 5 mps 759 mmHg 58%
    02:00 +26°C° 0 mm 4 mps 759 mmHg 57%
    03:00 +26°C° 0 mm 3 mps 759 mmHg 56%
    04:00 +25°C° 0 mm 3 mps 759 mmHg 56%
    05:00 +27°C° 0 mm 2 mps 760 mmHg 50%
    06:00 +29°C° 0 mm 2 mps 760 mmHg 45%
    07:00 +32°C° 0 mm 1 mps 760 mmHg 40%
    08:00 +34°C° 0 mm 2 mps 760 mmHg 37%
    09:00 +36°C° 0 mm 2 mps 760 mmHg 34%
    10:00 +38°C° 0 mm 2 mps 760 mmHg 30%
    11:00 +38°C° 0 mm 3 mps 760 mmHg 30%
    12:00 +39°C° 0 mm 3 mps 760 mmHg 30%
    13:00 +40°C° 0 mm 4 mps 759 mmHg 30%
    14:00 +38°C° 0 mm 3 mps 759 mmHg 33%
    15:00 +37°C° 0 mm 3 mps 759 mmHg 37%
    16:00 +36°C° 0 mm 2 mps 759 mmHg 40%
    17:00 +34°C° 0 mm 2 mps 759 mmHg 46%
    18:00 +32°C° 0 mm 2 mps 759 mmHg 52%
    19:00 +30°C° 0 mm 2 mps 758 mmHg 58%
    20:00 +29°C° 0 mm 2 mps 759 mmHg 58%
    21:00 +29°C° 0 mm 2 mps 759 mmHg 57%
    22:00 +28°C° 0 mm 2 mps 759 mmHg 56%
    23:00 +28°C° 0 mm 2 mps 758 mmHg 56%

    1 July, Saturday

    Time Temperature Precipitation Wind Pressure Humidity
    00:00 +28°C° 0 mm 3 mps 758 mmHg 57%
    01:00 +27°C° 0 mm 3 mps 758 mmHg 57%
    02:00 +27°C° 0 mm 3 mps 758 mmHg 56%
    03:00 +27°C° 0 mm 3 mps 758 mmHg 54%
    04:00 +27°C° 0 mm 3 mps 757 mmHg 53%
    05:00 +29°C° 0 mm 3 mps 757 mmHg 47%
    06:00 +33°C° 0 mm 3 mps 758 mmHg 41%
    07:00 +35°C° 0 mm 3 mps 758 mmHg 36%
    08:00 +36°C° 0 mm 3 mps 758 mmHg 32%
    09:00 +38°C° 0 mm 3 mps 758 mmHg 29%
    10:00 +39°C° 0 mm 3 mps 758 mmHg 26%
    11:00 +39°C° 0 mm 3 mps 757 mmHg 26%
    12:00 +39°C° 0 mm 3 mps 757 mmHg 26%
    13:00 +40°C° 0 mm 3 mps 757 mmHg 26%
    14:00 +39°C° 0 mm 3 mps 757 mmHg 27%
    15:00 +38°C° 0 mm 3 mps 756 mmHg 29%
    16:00 +38°C° 0 mm 2 mps 756 mmHg 31%
    17:00 +35°C° 0 mm 2 mps 756 mmHg 42%
    18:00 +31°C° 0 mm 2 mps 756 mmHg 52%
    19:00 +28°C° 0 mm 1 mps 756 mmHg 63%
    20:00 +27°C° 0 mm 2 mps 756 mmHg 66%
    21:00 +26°C° 0 mm 2 mps 756 mmHg 69%
    22:00 +25°C° 0 mm 3 mps 756 mmHg 71%
    23:00 +25°C° 0 mm 3 mps 756 mmHg 73%
    Show more